#datetime,building,power
2023-08-03T00:00:00,axn,28.84
2023-08-03T00:01:00,axn,28.15
2023-08-03T00:02:00,axn,27.95
2023-08-03T00:03:00,axn,28.02
2023-08-03T00:04:00,axn,27.87
2023-08-03T00:05:00,axn,28.13
2023-08-03T00:06:00,axn,28.18
2023-08-03T00:07:00,axn,28.61
2023-08-03T00:08:00,axn,28.02
2023-08-03T00:09:00,axn,28.19
2023-08-03T00:10:00,axn,28.23
2023-08-03T00:11:00,axn,42.64
2023-08-03T00:12:00,axn,42.07
2023-08-03T00:13:00,axn,52.12
2023-08-03T00:14:00,axn,52.03
2023-08-03T00:15:00,axn,51.71
2023-08-03T00:16:00,axn,51.40
2023-08-03T00:17:00,axn,26.97
2023-08-03T00:18:00,axn,26.98
2023-08-03T00:19:00,axn,26.98
2023-08-03T00:20:00,axn,27.00
2023-08-03T00:21:00,axn,25.09
2023-08-03T00:22:00,axn,25.07
2023-08-03T00:23:00,axn,24.94
2023-08-03T00:24:00,axn,25.00
2023-08-03T00:25:00,axn,25.01
2023-08-03T00:26:00,axn,24.91
2023-08-03T00:27:00,axn,25.09
2023-08-03T00:28:00,axn,25.48
2023-08-03T00:29:00,axn,25.20
2023-08-03T00:30:00,axn,25.19
2023-08-03T00:31:00,axn,25.12
2023-08-03T00:32:00,axn,25.16
2023-08-03T00:33:00,axn,25.26
2023-08-03T00:34:00,axn,25.31
2023-08-03T00:35:00,axn,25.27
2023-08-03T00:36:00,axn,25.88
2023-08-03T00:37:00,axn,30.49
2023-08-03T00:38:00,axn,30.46
2023-08-03T00:39:00,axn,32.61
2023-08-03T00:40:00,axn,32.73
2023-08-03T00:41:00,axn,28.13
2023-08-03T00:42:00,axn,25.38
2023-08-03T00:43:00,axn,25.31
2023-08-03T00:44:00,axn,25.30
2023-08-03T00:45:00,axn,25.82
2023-08-03T00:46:00,axn,25.52
2023-08-03T00:47:00,axn,25.51
2023-08-03T00:48:00,axn,25.52
2023-08-03T00:49:00,axn,25.62
2023-08-03T00:50:00,axn,25.66
2023-08-03T00:51:00,axn,25.48
2023-08-03T00:52:00,axn,25.85
2023-08-03T00:53:00,axn,25.49
2023-08-03T00:54:00,axn,25.54
2023-08-03T00:55:00,axn,25.54
2023-08-03T00:56:00,axn,25.62
2023-08-03T00:57:00,axn,31.59
2023-08-03T00:58:00,axn,31.49
2023-08-03T00:59:00,axn,31.25
2023-08-03T01:00:00,axn,25.50
2023-08-03T01:01:00,axn,25.62
2023-08-03T01:02:00,axn,25.90
2023-08-03T01:03:00,axn,25.90
2023-08-03T01:04:00,axn,26.27
2023-08-03T01:05:00,axn,26.04
2023-08-03T01:06:00,axn,25.86
2023-08-03T01:07:00,axn,25.54
2023-08-03T01:08:00,axn,25.44
2023-08-03T01:09:00,axn,25.42
2023-08-03T01:10:00,axn,26.04
2023-08-03T01:11:00,axn,25.68
2023-08-03T01:12:00,axn,25.65
2023-08-03T01:13:00,axn,28.37
2023-08-03T01:14:00,axn,25.59
2023-08-03T01:15:00,axn,25.84
2023-08-03T01:16:00,axn,25.64
2023-08-03T01:17:00,axn,25.37
2023-08-03T01:18:00,axn,25.42
2023-08-03T01:19:00,axn,25.75
2023-08-03T01:20:00,axn,25.28
2023-08-03T01:21:00,axn,25.29
2023-08-03T01:22:00,axn,25.50
2023-08-03T01:23:00,axn,25.35
2023-08-03T01:24:00,axn,25.20
2023-08-03T01:25:00,axn,25.76
2023-08-03T01:26:00,axn,25.55
2023-08-03T01:27:00,axn,25.55
2023-08-03T01:28:00,axn,25.44
2023-08-03T01:29:00,axn,25.32
2023-08-03T01:30:00,axn,25.29
2023-08-03T01:31:00,axn,26.16
2023-08-03T01:32:00,axn,25.55
2023-08-03T01:33:00,axn,25.64
2023-08-03T01:34:00,axn,25.95
2023-08-03T01:35:00,axn,26.08
2023-08-03T01:36:00,axn,25.95
2023-08-03T01:37:00,axn,25.93
2023-08-03T01:38:00,axn,25.86
2023-08-03T01:39:00,axn,25.82
2023-08-03T01:40:00,axn,26.09
2023-08-03T01:41:00,axn,25.94
2023-08-03T01:42:00,axn,25.80
2023-08-03T01:43:00,axn,26.22
2023-08-03T01:44:00,axn,26.17
2023-08-03T01:45:00,axn,25.97
2023-08-03T01:46:00,axn,25.94
2023-08-03T01:47:00,axn,25.85
2023-08-03T01:48:00,axn,25.98
2023-08-03T01:49:00,axn,25.98
2023-08-03T01:50:00,axn,26.45
2023-08-03T01:51:00,axn,26.04
2023-08-03T01:52:00,axn,26.14
2023-08-03T01:53:00,axn,25.96
2023-08-03T01:54:00,axn,26.05
2023-08-03T01:55:00,axn,26.05
2023-08-03T01:56:00,axn,25.74
2023-08-03T01:57:00,axn,25.36
2023-08-03T01:58:00,axn,25.24
2023-08-03T01:59:00,axn,25.25
2023-08-03T02:00:00,axn,25.31
2023-08-03T02:01:00,axn,25.24
2023-08-03T02:02:00,axn,25.24
2023-08-03T02:03:00,axn,25.44
2023-08-03T02:04:00,axn,25.24
2023-08-03T02:05:00,axn,25.22
2023-08-03T02:06:00,axn,25.17
2023-08-03T02:07:00,axn,25.32
2023-08-03T02:08:00,axn,25.35
2023-08-03T02:09:00,axn,25.47
2023-08-03T02:10:00,axn,25.49
2023-08-03T02:11:00,axn,25.21
2023-08-03T02:12:00,axn,25.19
2023-08-03T02:13:00,axn,25.24
2023-08-03T02:14:00,axn,25.26
2023-08-03T02:15:00,axn,25.52
2023-08-03T02:16:00,axn,25.56
2023-08-03T02:17:00,axn,25.50
2023-08-03T02:18:00,axn,25.46
2023-08-03T02:19:00,axn,25.50
2023-08-03T02:20:00,axn,25.44
2023-08-03T02:21:00,axn,25.51
2023-08-03T02:22:00,axn,25.44
2023-08-03T02:23:00,axn,25.15
2023-08-03T02:24:00,axn,25.19
2023-08-03T02:25:00,axn,25.23
2023-08-03T02:26:00,axn,25.20
2023-08-03T02:27:00,axn,25.38
2023-08-03T02:28:00,axn,25.09
2023-08-03T02:29:00,axn,24.98
2023-08-03T02:30:00,axn,25.05
2023-08-03T02:31:00,axn,25.11
2023-08-03T02:32:00,axn,25.15
2023-08-03T02:33:00,axn,25.05
2023-08-03T02:34:00,axn,25.01
2023-08-03T02:35:00,axn,25.09
2023-08-03T02:36:00,axn,25.80
2023-08-03T02:37:00,axn,25.18
2023-08-03T02:38:00,axn,25.25
2023-08-03T02:39:00,axn,25.48
2023-08-03T02:40:00,axn,25.31
2023-08-03T02:41:00,axn,25.34
2023-08-03T02:42:00,axn,25.61
2023-08-03T02:43:00,axn,25.44
2023-08-03T02:44:00,axn,25.44
2023-08-03T02:45:00,axn,25.72
2023-08-03T02:46:00,axn,25.40
2023-08-03T02:47:00,axn,25.43
2023-08-03T02:48:00,axn,25.49
2023-08-03T02:49:00,axn,25.53
2023-08-03T02:50:00,axn,25.44
2023-08-03T02:51:00,axn,25.48
2023-08-03T02:52:00,axn,25.39
2023-08-03T02:53:00,axn,25.44
2023-08-03T02:54:00,axn,25.49
2023-08-03T02:55:00,axn,25.86
2023-08-03T02:56:00,axn,26.46
2023-08-03T02:57:00,axn,26.18
2023-08-03T02:58:00,axn,26.14
2023-08-03T02:59:00,axn,26.20
2023-08-03T03:00:00,axn,26.07
2023-08-03T03:01:00,axn,26.19
2023-08-03T03:02:00,axn,26.27
2023-08-03T03:03:00,axn,26.22
2023-08-03T03:04:00,axn,26.11
2023-08-03T03:05:00,axn,25.83
2023-08-03T03:06:00,axn,25.96
2023-08-03T03:07:00,axn,25.50
2023-08-03T03:08:00,axn,25.40
2023-08-03T03:09:00,axn,25.33
2023-08-03T03:10:00,axn,25.29
2023-08-03T03:11:00,axn,25.41
2023-08-03T03:12:00,axn,25.45
2023-08-03T03:13:00,axn,25.67
2023-08-03T03:14:00,axn,25.51
2023-08-03T03:15:00,axn,25.31
2023-08-03T03:16:00,axn,25.49
2023-08-03T03:17:00,axn,25.52
2023-08-03T03:18:00,axn,25.57
2023-08-03T03:19:00,axn,25.61
2023-08-03T03:20:00,axn,25.60
2023-08-03T03:21:00,axn,25.64
2023-08-03T03:22:00,axn,25.53
2023-08-03T03:23:00,axn,25.73
2023-08-03T03:24:00,axn,25.68
2023-08-03T03:25:00,axn,25.55
2023-08-03T03:26:00,axn,25.67
2023-08-03T03:27:00,axn,25.75
2023-08-03T03:28:00,axn,25.76
2023-08-03T03:29:00,axn,25.69
2023-08-03T03:30:00,axn,25.64
2023-08-03T03:31:00,axn,25.81
2023-08-03T03:32:00,axn,25.34
2023-08-03T03:33:00,axn,25.71
2023-08-03T03:34:00,axn,25.75
2023-08-03T03:35:00,axn,25.59
2023-08-03T03:36:00,axn,25.72
2023-08-03T03:37:00,axn,25.61
2023-08-03T03:38:00,axn,25.72
2023-08-03T03:39:00,axn,25.86
2023-08-03T03:40:00,axn,25.94
2023-08-03T03:41:00,axn,25.59
2023-08-03T03:42:00,axn,25.58
2023-08-03T03:43:00,axn,25.71
2023-08-03T03:44:00,axn,25.97
2023-08-03T03:45:00,axn,26.72
2023-08-03T03:46:00,axn,25.95
2023-08-03T03:47:00,axn,25.98
2023-08-03T03:48:00,axn,26.01
2023-08-03T03:49:00,axn,25.95
2023-08-03T03:50:00,axn,25.89
2023-08-03T03:51:00,axn,26.10
2023-08-03T03:52:00,axn,26.02
2023-08-03T03:53:00,axn,25.97
2023-08-03T03:54:00,axn,25.80
2023-08-03T03:55:00,axn,25.85
2023-08-03T03:56:00,axn,25.94
2023-08-03T03:57:00,axn,28.87
2023-08-03T03:58:00,axn,29.44
2023-08-03T03:59:00,axn,25.99
2023-08-03T04:00:00,axn,26.10
2023-08-03T04:01:00,axn,25.80
2023-08-03T04:02:00,axn,25.88
2023-08-03T04:03:00,axn,25.53
2023-08-03T04:04:00,axn,25.55
2023-08-03T04:05:00,axn,25.84
2023-08-03T04:06:00,axn,25.66
2023-08-03T04:07:00,axn,25.68
2023-08-03T04:08:00,axn,25.67
2023-08-03T04:09:00,axn,26.00
2023-08-03T04:10:00,axn,25.57
2023-08-03T04:11:00,axn,26.34
2023-08-03T04:12:00,axn,27.40
2023-08-03T04:13:00,axn,43.91
2023-08-03T04:14:00,axn,27.47
2023-08-03T04:15:00,axn,30.26
2023-08-03T04:16:00,axn,30.15
2023-08-03T04:17:00,axn,30.16
2023-08-03T04:18:00,axn,27.40
2023-08-03T04:19:00,axn,27.31
2023-08-03T04:20:00,axn,27.14
2023-08-03T04:21:00,axn,27.03
2023-08-03T04:22:00,axn,27.15
2023-08-03T04:23:00,axn,27.08
2023-08-03T04:24:00,axn,26.97
2023-08-03T04:25:00,axn,26.73
2023-08-03T04:26:00,axn,27.01
2023-08-03T04:27:00,axn,27.06
2023-08-03T04:28:00,axn,27.37
2023-08-03T04:29:00,axn,27.16
2023-08-03T04:30:00,axn,30.24
2023-08-03T04:31:00,axn,30.29
2023-08-03T04:32:00,axn,30.35
2023-08-03T04:33:00,axn,30.31
2023-08-03T04:34:00,axn,30.27
2023-08-03T04:35:00,axn,28.48
2023-08-03T04:36:00,axn,28.19
2023-08-03T04:37:00,axn,28.16
2023-08-03T04:38:00,axn,28.13
2023-08-03T04:39:00,axn,28.06
2023-08-03T04:40:00,axn,27.58
2023-08-03T04:41:00,axn,27.56
2023-08-03T04:42:00,axn,27.42
2023-08-03T04:43:00,axn,27.49
2023-08-03T04:44:00,axn,27.09
2023-08-03T04:45:00,axn,26.95
2023-08-03T04:46:00,axn,26.77
2023-08-03T04:47:00,axn,27.04
2023-08-03T04:48:00,axn,26.78
2023-08-03T04:49:00,axn,27.21
2023-08-03T04:50:00,axn,27.08
2023-08-03T04:51:00,axn,26.78
2023-08-03T04:52:00,axn,26.31
2023-08-03T04:53:00,axn,27.13
2023-08-03T04:54:00,axn,26.34
2023-08-03T04:55:00,axn,26.08
2023-08-03T04:56:00,axn,26.05
2023-08-03T04:57:00,axn,25.99
2023-08-03T04:58:00,axn,26.15
2023-08-03T04:59:00,axn,32.42
2023-08-03T05:00:00,axn,25.91
2023-08-03T05:01:00,axn,24.81
2023-08-03T05:02:00,axn,24.72
2023-08-03T05:03:00,axn,24.65
2023-08-03T05:04:00,axn,24.93
2023-08-03T05:05:00,axn,24.98
2023-08-03T05:06:00,axn,24.94
2023-08-03T05:07:00,axn,24.96
2023-08-03T05:08:00,axn,25.60
2023-08-03T05:09:00,axn,25.67
2023-08-03T05:10:00,axn,25.72
2023-08-03T05:11:00,axn,25.63
2023-08-03T05:12:00,axn,25.75
2023-08-03T05:13:00,axn,25.88
2023-08-03T05:14:00,axn,25.31
2023-08-03T05:15:00,axn,25.57
2023-08-03T05:16:00,axn,25.61
2023-08-03T05:17:00,axn,25.69
2023-08-03T05:18:00,axn,25.71
2023-08-03T05:19:00,axn,25.56
2023-08-03T05:20:00,axn,25.51
2023-08-03T05:21:00,axn,25.62
2023-08-03T05:22:00,axn,25.42
2023-08-03T05:23:00,axn,25.57
2023-08-03T05:24:00,axn,25.60
2023-08-03T05:25:00,axn,25.28
2023-08-03T05:26:00,axn,25.43
2023-08-03T05:27:00,axn,25.84
2023-08-03T05:28:00,axn,25.56
2023-08-03T05:29:00,axn,25.57
2023-08-03T05:30:00,axn,25.53
2023-08-03T05:31:00,axn,28.03
2023-08-03T05:32:00,axn,27.88
2023-08-03T05:33:00,axn,27.59
2023-08-03T05:34:00,axn,27.62
2023-08-03T05:35:00,axn,27.59
2023-08-03T05:36:00,axn,28.25
2023-08-03T05:37:00,axn,27.73
2023-08-03T05:38:00,axn,27.59
2023-08-03T05:39:00,axn,27.38
2023-08-03T05:40:00,axn,27.42
2023-08-03T05:41:00,axn,27.73
2023-08-03T05:42:00,axn,27.59
2023-08-03T05:43:00,axn,27.64
2023-08-03T05:44:00,axn,27.62
2023-08-03T05:45:00,axn,27.52
2023-08-03T05:46:00,axn,27.53
2023-08-03T05:47:00,axn,27.65
2023-08-03T05:48:00,axn,27.38
2023-08-03T05:49:00,axn,27.42
2023-08-03T05:50:00,axn,27.35
2023-08-03T05:51:00,axn,27.36
2023-08-03T05:52:00,axn,27.46
2023-08-03T05:53:00,axn,27.75
2023-08-03T05:54:00,axn,41.95
2023-08-03T05:55:00,axn,41.47
2023-08-03T05:56:00,axn,41.59
2023-08-03T05:57:00,axn,41.11
2023-08-03T05:58:00,axn,41.18
2023-08-03T05:59:00,axn,27.26
2023-08-03T06:00:00,axn,27.37
2023-08-03T06:01:00,axn,26.84
2023-08-03T06:02:00,axn,26.97
2023-08-03T06:03:00,axn,26.57
2023-08-03T06:04:00,axn,26.99
2023-08-03T06:05:00,axn,26.69
2023-08-03T06:06:00,axn,26.61
2023-08-03T06:07:00,axn,26.53
2023-08-03T06:08:00,axn,26.47
2023-08-03T06:09:00,axn,26.31
2023-08-03T06:10:00,axn,26.39
2023-08-03T06:11:00,axn,26.27
2023-08-03T06:12:00,axn,26.03
2023-08-03T06:13:00,axn,26.21
2023-08-03T06:14:00,axn,26.12
2023-08-03T06:15:00,axn,26.14
2023-08-03T06:16:00,axn,25.99
2023-08-03T06:17:00,axn,25.85
2023-08-03T06:18:00,axn,25.61
2023-08-03T06:19:00,axn,25.66
2023-08-03T06:20:00,axn,25.53
2023-08-03T06:21:00,axn,25.47
2023-08-03T06:22:00,axn,25.44
2023-08-03T06:23:00,axn,25.59
2023-08-03T06:24:00,axn,25.56
2023-08-03T06:25:00,axn,25.76
2023-08-03T06:26:00,axn,26.03
2023-08-03T06:27:00,axn,42.52
2023-08-03T06:28:00,axn,25.52
2023-08-03T06:29:00,axn,25.44
2023-08-03T06:30:00,axn,25.48
2023-08-03T06:31:00,axn,25.40
2023-08-03T06:32:00,axn,25.25
2023-08-03T06:33:00,axn,25.10
2023-08-03T06:34:00,axn,25.12
2023-08-03T06:35:00,axn,39.23
2023-08-03T06:36:00,axn,24.95
2023-08-03T06:37:00,axn,25.70
2023-08-03T06:38:00,axn,24.92
2023-08-03T06:39:00,axn,24.85
2023-08-03T06:40:00,axn,24.92
2023-08-03T06:41:00,axn,25.09
2023-08-03T06:42:00,axn,25.27
2023-08-03T06:43:00,axn,41.54
2023-08-03T06:44:00,axn,24.98
2023-08-03T06:45:00,axn,25.30
2023-08-03T06:46:00,axn,25.37
2023-08-03T06:47:00,axn,25.00
2023-08-03T06:48:00,axn,24.92
2023-08-03T06:49:00,axn,24.97
2023-08-03T06:50:00,axn,25.08
2023-08-03T06:51:00,axn,24.84
2023-08-03T06:52:00,axn,24.76
2023-08-03T06:53:00,axn,24.55
2023-08-03T06:54:00,axn,24.59
2023-08-03T06:55:00,axn,24.41
2023-08-03T06:56:00,axn,24.34
2023-08-03T06:57:00,axn,24.51
2023-08-03T06:58:00,axn,24.66
2023-08-03T06:59:00,axn,24.61
2023-08-03T07:00:00,axn,24.47
2023-08-03T07:01:00,axn,29.96
2023-08-03T07:02:00,axn,32.23
2023-08-03T07:03:00,axn,33.54
2023-08-03T07:04:00,axn,30.75
2023-08-03T07:05:00,axn,30.25
2023-08-03T07:06:00,axn,30.63
2023-08-03T07:07:00,axn,31.25
2023-08-03T07:08:00,axn,31.17
2023-08-03T07:09:00,axn,31.77
2023-08-03T07:10:00,axn,46.54
2023-08-03T07:11:00,axn,32.01
2023-08-03T07:12:00,axn,32.52
2023-08-03T07:13:00,axn,32.61
2023-08-03T07:14:00,axn,32.64
2023-08-03T07:15:00,axn,31.98
2023-08-03T07:16:00,axn,32.35
2023-08-03T07:17:00,axn,32.20
2023-08-03T07:18:00,axn,31.89
2023-08-03T07:19:00,axn,31.57
2023-08-03T07:20:00,axn,31.84
2023-08-03T07:21:00,axn,31.71
2023-08-03T07:22:00,axn,31.71
2023-08-03T07:23:00,axn,31.57
2023-08-03T07:24:00,axn,31.38
2023-08-03T07:25:00,axn,31.63
2023-08-03T07:26:00,axn,31.84
2023-08-03T07:27:00,axn,31.62
2023-08-03T07:28:00,axn,34.77
2023-08-03T07:29:00,axn,34.50
2023-08-03T07:30:00,axn,31.83
2023-08-03T07:31:00,axn,42.58
2023-08-03T07:32:00,axn,42.89
2023-08-03T07:33:00,axn,42.57
2023-08-03T07:34:00,axn,42.73
2023-08-03T07:35:00,axn,32.76
2023-08-03T07:36:00,axn,32.76
2023-08-03T07:37:00,axn,33.03
2023-08-03T07:38:00,axn,33.07
2023-08-03T07:39:00,axn,33.76
2023-08-03T07:40:00,axn,33.86
2023-08-03T07:41:00,axn,33.89
2023-08-03T07:42:00,axn,33.98
2023-08-03T07:43:00,axn,33.64
2023-08-03T07:44:00,axn,33.91
2023-08-03T07:45:00,axn,36.02
2023-08-03T07:46:00,axn,36.53
2023-08-03T07:47:00,axn,37.08
2023-08-03T07:48:00,axn,37.77
2023-08-03T07:49:00,axn,38.36
2023-08-03T07:50:00,axn,47.42
2023-08-03T07:51:00,axn,38.30
2023-08-03T07:52:00,axn,39.26
2023-08-03T07:53:00,axn,38.09
2023-08-03T07:54:00,axn,38.15
2023-08-03T07:55:00,axn,38.30
2023-08-03T07:56:00,axn,38.15
2023-08-03T07:57:00,axn,38.40
2023-08-03T07:58:00,axn,38.84
2023-08-03T07:59:00,axn,39.47
2023-08-03T08:00:00,axn,38.91
2023-08-03T08:01:00,axn,39.18
2023-08-03T08:02:00,axn,43.32
2023-08-03T08:03:00,axn,43.53
2023-08-03T08:04:00,axn,43.59
2023-08-03T08:05:00,axn,43.79
2023-08-03T08:06:00,axn,43.61
2023-08-03T08:07:00,axn,43.63
2023-08-03T08:08:00,axn,43.54
2023-08-03T08:09:00,axn,43.37
2023-08-03T08:10:00,axn,43.43
2023-08-03T08:11:00,axn,43.86
2023-08-03T08:12:00,axn,44.02
2023-08-03T08:13:00,axn,43.79
2023-08-03T08:14:00,axn,44.04
2023-08-03T08:15:00,axn,44.37
2023-08-03T08:16:00,axn,44.08
2023-08-03T08:17:00,axn,43.87
2023-08-03T08:18:00,axn,43.79
2023-08-03T08:19:00,axn,43.78
2023-08-03T08:20:00,axn,43.86
2023-08-03T08:21:00,axn,44.07
2023-08-03T08:22:00,axn,44.07
2023-08-03T08:23:00,axn,44.21
2023-08-03T08:24:00,axn,44.30
2023-08-03T08:25:00,axn,44.15
2023-08-03T08:26:00,axn,44.17
2023-08-03T08:27:00,axn,44.78
2023-08-03T08:28:00,axn,43.66
2023-08-03T08:29:00,axn,44.17
2023-08-03T08:30:00,axn,43.54
2023-08-03T08:31:00,axn,43.72
2023-08-03T08:32:00,axn,43.69
2023-08-03T08:33:00,axn,51.15
2023-08-03T08:34:00,axn,51.06
2023-08-03T08:35:00,axn,51.33
2023-08-03T08:36:00,axn,44.07
2023-08-03T08:37:00,axn,44.36
2023-08-03T08:38:00,axn,44.86
2023-08-03T08:39:00,axn,44.85
2023-08-03T08:40:00,axn,45.24
2023-08-03T08:41:00,axn,45.46
2023-08-03T08:42:00,axn,45.21
2023-08-03T08:43:00,axn,45.08
2023-08-03T08:44:00,axn,44.85
2023-08-03T08:45:00,axn,44.97
2023-08-03T08:46:00,axn,45.03
2023-08-03T08:47:00,axn,45.13
2023-08-03T08:48:00,axn,45.21
2023-08-03T08:49:00,axn,45.37
2023-08-03T08:50:00,axn,45.24
2023-08-03T08:51:00,axn,45.01
2023-08-03T08:52:00,axn,44.54
2023-08-03T08:53:00,axn,44.53
2023-08-03T08:54:00,axn,44.25
2023-08-03T08:55:00,axn,49.99
2023-08-03T08:56:00,axn,49.79
2023-08-03T08:57:00,axn,50.25
2023-08-03T08:58:00,axn,44.45
2023-08-03T08:59:00,axn,44.98
2023-08-03T09:00:00,axn,44.85
2023-08-03T09:01:00,axn,45.12
2023-08-03T09:02:00,axn,44.85
2023-08-03T09:03:00,axn,44.94
2023-08-03T09:04:00,axn,45.01
2023-08-03T09:05:00,axn,44.83
2023-08-03T09:06:00,axn,45.59
2023-08-03T09:07:00,axn,44.92
2023-08-03T09:08:00,axn,45.04
2023-08-03T09:09:00,axn,45.51
2023-08-03T09:10:00,axn,46.37
2023-08-03T09:11:00,axn,45.95
2023-08-03T09:12:00,axn,45.60
2023-08-03T09:13:00,axn,45.17
2023-08-03T09:14:00,axn,45.11
2023-08-03T09:15:00,axn,45.06
2023-08-03T09:16:00,axn,45.05
2023-08-03T09:17:00,axn,45.20
2023-08-03T09:18:00,axn,45.06
2023-08-03T09:19:00,axn,45.05
2023-08-03T09:20:00,axn,44.85
2023-08-03T09:21:00,axn,47.84
2023-08-03T09:22:00,axn,48.10
2023-08-03T09:23:00,axn,45.48
2023-08-03T09:24:00,axn,44.91
2023-08-03T09:25:00,axn,45.01
2023-08-03T09:26:00,axn,44.93
2023-08-03T09:27:00,axn,44.91
2023-08-03T09:28:00,axn,44.57
2023-08-03T09:29:00,axn,44.86
2023-08-03T09:30:00,axn,44.65
2023-08-03T09:31:00,axn,44.75
2023-08-03T09:32:00,axn,45.44
2023-08-03T09:33:00,axn,44.58
2023-08-03T09:34:00,axn,44.96
2023-08-03T09:35:00,axn,44.74
2023-08-03T09:36:00,axn,44.66
2023-08-03T09:37:00,axn,44.34
2023-08-03T09:38:00,axn,44.34
2023-08-03T09:39:00,axn,44.43
2023-08-03T09:40:00,axn,44.48
2023-08-03T09:41:00,axn,44.61
2023-08-03T09:42:00,axn,44.57
2023-08-03T09:43:00,axn,44.67
2023-08-03T09:44:00,axn,44.48
2023-08-03T09:45:00,axn,44.52
2023-08-03T09:46:00,axn,44.66
2023-08-03T09:47:00,axn,44.98
2023-08-03T09:48:00,axn,44.61
2023-08-03T09:49:00,axn,44.35
2023-08-03T09:50:00,axn,44.14
2023-08-03T09:51:00,axn,44.48
2023-08-03T09:52:00,axn,43.55
2023-08-03T09:53:00,axn,43.17
2023-08-03T09:54:00,axn,43.21
2023-08-03T09:55:00,axn,43.24
2023-08-03T09:56:00,axn,43.24
2023-08-03T09:57:00,axn,42.74
2023-08-03T09:58:00,axn,42.80
2023-08-03T09:59:00,axn,42.73
2023-08-03T10:00:00,axn,42.47
2023-08-03T10:01:00,axn,42.09
2023-08-03T10:02:00,axn,42.35
2023-08-03T10:03:00,axn,42.38
2023-08-03T10:04:00,axn,42.33
2023-08-03T10:05:00,axn,42.40
2023-08-03T10:06:00,axn,43.39
2023-08-03T10:07:00,axn,42.08
2023-08-03T10:08:00,axn,42.40
2023-08-03T10:09:00,axn,42.65
2023-08-03T10:10:00,axn,43.30
2023-08-03T10:11:00,axn,42.93
2023-08-03T10:12:00,axn,42.89
2023-08-03T10:13:00,axn,42.92
2023-08-03T10:14:00,axn,42.89
2023-08-03T10:15:00,axn,42.80
2023-08-03T10:16:00,axn,42.78
2023-08-03T10:17:00,axn,42.93
2023-08-03T10:18:00,axn,42.83
2023-08-03T10:19:00,axn,42.81
2023-08-03T10:20:00,axn,57.22
2023-08-03T10:21:00,axn,57.06
2023-08-03T10:22:00,axn,60.37
2023-08-03T10:23:00,axn,60.65
2023-08-03T10:24:00,axn,59.75
2023-08-03T10:25:00,axn,56.96
2023-08-03T10:26:00,axn,43.46
2023-08-03T10:27:00,axn,43.22
2023-08-03T10:28:00,axn,43.47
2023-08-03T10:29:00,axn,43.09
2023-08-03T10:30:00,axn,43.07
2023-08-03T10:31:00,axn,43.11
2023-08-03T10:32:00,axn,43.15
2023-08-03T10:33:00,axn,43.22
2023-08-03T10:34:00,axn,43.70
2023-08-03T10:35:00,axn,43.01
2023-08-03T10:36:00,axn,42.96
2023-08-03T10:37:00,axn,43.28
2023-08-03T10:38:00,axn,43.33
2023-08-03T10:39:00,axn,44.10
2023-08-03T10:40:00,axn,43.32
2023-08-03T10:41:00,axn,43.28
2023-08-03T10:42:00,axn,43.39
2023-08-03T10:43:00,axn,43.15
2023-08-03T10:44:00,axn,43.11
2023-08-03T10:45:00,axn,43.43
2023-08-03T10:46:00,axn,43.40
2023-08-03T10:47:00,axn,43.46
2023-08-03T10:48:00,axn,43.24
2023-08-03T10:49:00,axn,43.31
2023-08-03T10:50:00,axn,43.67
2023-08-03T10:51:00,axn,42.94
2023-08-03T10:52:00,axn,43.41
2023-08-03T10:53:00,axn,42.99
2023-08-03T10:54:00,axn,43.49
2023-08-03T10:55:00,axn,43.27
2023-08-03T10:56:00,axn,43.33
2023-08-03T10:57:00,axn,44.20
2023-08-03T10:58:00,axn,44.35
2023-08-03T10:59:00,axn,44.94
2023-08-03T11:00:00,axn,45.23
2023-08-03T11:01:00,axn,44.95
2023-08-03T11:02:00,axn,45.29
2023-08-03T11:03:00,axn,48.01
2023-08-03T11:04:00,axn,45.27
2023-08-03T11:05:00,axn,45.24
2023-08-03T11:06:00,axn,45.25
2023-08-03T11:07:00,axn,45.50
2023-08-03T11:08:00,axn,48.33
2023-08-03T11:09:00,axn,48.44
2023-08-03T11:10:00,axn,48.24
2023-08-03T11:11:00,axn,45.77
2023-08-03T11:12:00,axn,45.50
2023-08-03T11:13:00,axn,45.82
2023-08-03T11:14:00,axn,45.34
2023-08-03T11:15:00,axn,45.66
2023-08-03T11:16:00,axn,45.65
2023-08-03T11:17:00,axn,46.01
2023-08-03T11:18:00,axn,45.86
2023-08-03T11:19:00,axn,45.79
2023-08-03T11:20:00,axn,45.77
2023-08-03T11:21:00,axn,45.65
2023-08-03T11:22:00,axn,45.98
2023-08-03T11:23:00,axn,45.89
2023-08-03T11:24:00,axn,46.12
2023-08-03T11:25:00,axn,46.24
2023-08-03T11:26:00,axn,45.97
2023-08-03T11:27:00,axn,45.69
2023-08-03T11:28:00,axn,45.71
2023-08-03T11:29:00,axn,45.73
2023-08-03T11:30:00,axn,45.23
2023-08-03T11:31:00,axn,45.32
2023-08-03T11:32:00,axn,45.06
2023-08-03T11:33:00,axn,45.77
2023-08-03T11:34:00,axn,45.89
2023-08-03T11:35:00,axn,46.14
2023-08-03T11:36:00,axn,46.51
2023-08-03T11:37:00,axn,46.11
2023-08-03T11:38:00,axn,45.83
2023-08-03T11:39:00,axn,45.98
2023-08-03T11:40:00,axn,45.77
2023-08-03T11:41:00,axn,45.70
2023-08-03T11:42:00,axn,45.89
2023-08-03T11:43:00,axn,45.88
2023-08-03T11:44:00,axn,45.67
2023-08-03T11:45:00,axn,45.73
2023-08-03T11:46:00,axn,45.70
2023-08-03T11:47:00,axn,45.79
2023-08-03T11:48:00,axn,45.33
2023-08-03T11:49:00,axn,45.11
2023-08-03T11:50:00,axn,44.79
2023-08-03T11:51:00,axn,44.48
2023-08-03T11:52:00,axn,44.25
2023-08-03T11:53:00,axn,44.79
2023-08-03T11:54:00,axn,44.47
2023-08-03T11:55:00,axn,44.49
2023-08-03T11:56:00,axn,44.52
2023-08-03T11:57:00,axn,44.76
2023-08-03T11:58:00,axn,44.99
2023-08-03T11:59:00,axn,45.16
2023-08-03T12:00:00,axn,45.30
2023-08-03T12:01:00,axn,45.49
2023-08-03T12:02:00,axn,45.63
2023-08-03T12:03:00,axn,45.35
2023-08-03T12:04:00,axn,45.33
2023-08-03T12:05:00,axn,45.42
2023-08-03T12:06:00,axn,45.79
2023-08-03T12:07:00,axn,46.02
2023-08-03T12:08:00,axn,46.55
2023-08-03T12:09:00,axn,45.75
2023-08-03T12:10:00,axn,48.80
2023-08-03T12:11:00,axn,48.77
2023-08-03T12:12:00,axn,48.95
2023-08-03T12:13:00,axn,48.41
2023-08-03T12:14:00,axn,45.55
2023-08-03T12:15:00,axn,45.67
2023-08-03T12:16:00,axn,45.70
2023-08-03T12:17:00,axn,45.78
2023-08-03T12:18:00,axn,45.80
2023-08-03T12:19:00,axn,45.92
2023-08-03T12:20:00,axn,45.43
2023-08-03T12:21:00,axn,45.84
2023-08-03T12:22:00,axn,46.45
2023-08-03T12:23:00,axn,46.25
2023-08-03T12:24:00,axn,46.33
2023-08-03T12:25:00,axn,45.74
2023-08-03T12:26:00,axn,45.34
2023-08-03T12:27:00,axn,44.63
2023-08-03T12:28:00,axn,44.57
2023-08-03T12:29:00,axn,44.20
2023-08-03T12:30:00,axn,44.48
2023-08-03T12:31:00,axn,44.55
2023-08-03T12:32:00,axn,59.64
2023-08-03T12:33:00,axn,53.77
2023-08-03T12:34:00,axn,53.20
2023-08-03T12:35:00,axn,63.17
2023-08-03T12:36:00,axn,62.70
2023-08-03T12:37:00,axn,62.53
2023-08-03T12:38:00,axn,63.12
2023-08-03T12:39:00,axn,52.79
2023-08-03T12:40:00,axn,52.70
2023-08-03T12:41:00,axn,52.58
2023-08-03T12:42:00,axn,52.08
2023-08-03T12:43:00,axn,51.90
2023-08-03T12:44:00,axn,51.83
2023-08-03T12:45:00,axn,52.39
2023-08-03T12:46:00,axn,52.20
2023-08-03T12:47:00,axn,52.33
2023-08-03T12:48:00,axn,51.75
2023-08-03T12:49:00,axn,51.69
2023-08-03T12:50:00,axn,52.12
2023-08-03T12:51:00,axn,52.09
2023-08-03T12:52:00,axn,51.59
2023-08-03T12:53:00,axn,51.37
2023-08-03T12:54:00,axn,51.28
2023-08-03T12:55:00,axn,51.32
2023-08-03T12:56:00,axn,51.27
2023-08-03T12:57:00,axn,51.29
2023-08-03T12:58:00,axn,52.27
2023-08-03T12:59:00,axn,51.98
2023-08-03T13:00:00,axn,51.09
2023-08-03T13:01:00,axn,51.24
2023-08-03T13:02:00,axn,51.00
2023-08-03T13:03:00,axn,43.26
2023-08-03T13:04:00,axn,43.41
2023-08-03T13:05:00,axn,45.01
2023-08-03T13:06:00,axn,46.03
2023-08-03T13:07:00,axn,43.22
2023-08-03T13:08:00,axn,43.39
2023-08-03T13:09:00,axn,42.81
2023-08-03T13:10:00,axn,43.75
2023-08-03T13:11:00,axn,42.21
2023-08-03T13:12:00,axn,41.99
2023-08-03T13:13:00,axn,41.90
2023-08-03T13:14:00,axn,42.13
2023-08-03T13:15:00,axn,41.46
2023-08-03T13:16:00,axn,41.22
2023-08-03T13:17:00,axn,40.79
2023-08-03T13:18:00,axn,41.18